| time (UTC) | temp F | wind direction | speed MPH | gust MPH | rain 1hr in | rain 24hr in | rain mn in | humidity % | barometer mb |
| 20260505102017 | 66 | 135 | 8.0 | 13.0 | 0.00 | 0.00 | 0.00 | 73 | 1018.2 |
| 20260505101517 | 66 | 135 | 7.0 | 12.0 | 0.00 | 0.00 | 0.00 | 74 | 1018.2 |
| 20260505101017 | 66 | 135 | 7.0 | 12.0 | 0.00 | 0.00 | 0.00 | 73 | 1018.3 |
| 20260505100517 | 66 | 135 | 9.0 | 12.0 | 0.00 | 0.00 | 0.00 | 72 | 1018.3 |
| 20260505100017 | 66 | 135 | 7.0 | 13.0 | 0.00 | 0.00 | 0.00 | 72 | 1018.4 |
| 20260505095537 | 66 | 135 | 7.0 | 13.0 | 0.00 | 0.00 | 0.00 | 71 | 1018.3 |
| 20260505095017 | 67 | 135 | 9.0 | 14.0 | 0.00 | 0.00 | 0.00 | 71 | 1018.3 |
| 20260505094517 | 67 | 135 | 8.0 | 13.0 | 0.00 | 0.00 | 0.00 | 70 | 1018.4 |
| 20260505094017 | 66 | 135 | 7.0 | 12.0 | 0.00 | 0.00 | 0.00 | 71 | 1018.5 |
| 20260505093517 | 66 | 135 | 6.0 | 12.0 | 0.00 | 0.00 | 0.00 | 72 | 1018.4 |
| 20260505093017 | 65 | 135 | 8.0 | 13.0 | 0.00 | 0.00 | 0.00 | 72 | 1018.3 |
| 20260505092517 | 66 | 135 | 9.0 | 14.0 | 0.00 | 0.00 | 0.00 | 73 | 1018.4 |
| 20260505092017 | 66 | 135 | 9.0 | 14.0 | 0.00 | 0.00 | 0.00 | 73 | 1018.4 |
| 20260505091517 | 66 | 135 | 10.0 | 15.0 | 0.00 | 0.00 | 0.00 | 72 | 1018.4 |
| 20260505091017 | 66 | 135 | 10.0 | 17.0 | 0.00 | 0.00 | 0.00 | 73 | 1018.4 |
| 20260505090517 | 66 | 135 | 10.0 | 15.0 | 0.00 | 0.00 | 0.00 | 73 | 1018.4 |
| 20260505090017 | 66 | 135 | 9.0 | 16.0 | 0.00 | 0.00 | 0.00 | 73 | 1018.4 |
| 20260505085517 | 66 | 135 | 8.0 | 14.0 | 0.00 | 0.00 | 0.00 | 72 | 1018.4 |
| 20260505085037 | 66 | 135 | 7.0 | 12.0 | 0.00 | 0.00 | 0.00 | 72 | 1018.4 |
| 20260505084516 | 66 | 135 | 9.0 | 13.0 | 0.00 | 0.00 | 0.00 | 73 | 1018.5 |
| 20260505084016 | 66 | 135 | 9.0 | 13.0 | 0.00 | 0.00 | 0.00 | 73 | 1018.4 |
| 20260505083517 | 66 | 135 | 9.0 | 16.0 | 0.00 | 0.00 | 0.00 | 74 | 1018.4 |
| 20260505083016 | 66 | 113 | 7.0 | 15.0 | 0.00 | 0.00 | 0.00 | 74 | 1018.3 |
| 20260505082517 | 65 | 135 | 7.0 | 12.0 | 0.00 | 0.00 | 0.00 | 75 | 1018.4 |
| 20260505082017 | 65 | 135 | 9.0 | 14.0 | 0.00 | 0.00 | 0.00 | 75 | 1018.4 |
| 20260505081516 | 65 | 135 | 10.0 | 14.0 | 0.00 | 0.00 | 0.00 | 76 | 1018.4 |
| 20260505081016 | 65 | 135 | 8.0 | 13.0 | 0.00 | 0.00 | 0.00 | 76 | 1018.4 |
| 20260505080517 | 65 | 135 | 8.0 | 13.0 | 0.00 | 0.00 | 0.00 | 76 | 1018.4 |
| 20260505080036 | 65 | 113 | 9.0 | 14.0 | 0.00 | 0.00 | 0.00 | 77 | 1018.4 |
| 20260505075516 | 65 | 135 | 8.0 | 14.0 | 0.00 | 0.00 | 0.00 | 76 | 1018.2 |
| 20260505075016 | 65 | 135 | 7.0 | 14.0 | 0.00 | 0.00 | 0.00 | 76 | 1018.2 |
| 20260505074517 | 65 | 113 | 10.0 | 14.0 | 0.00 | 0.00 | 0.00 | 77 | 1018.2 |
| 20260505074016 | 65 | 135 | 10.0 | 14.0 | 0.00 | 0.00 | 0.00 | 77 | 1018.2 |
| 20260505073516 | 65 | 135 | 8.0 | 13.0 | 0.00 | 0.00 | 0.00 | 76 | 1018.3 |
| 20260505073017 | 65 | 135 | 6.0 | 12.0 | 0.00 | 0.00 | 0.00 | 75 | 1018.4 |
| 20260505072517 | 65 | 135 | 7.0 | 11.0 | 0.00 | 0.00 | 0.00 | 75 | 1018.4 |
| 20260505072016 | 65 | 135 | 9.0 | 13.0 | 0.00 | 0.00 | 0.00 | 77 | 1018.4 |
| 20260505071516 | 65 | 135 | 7.0 | 12.0 | 0.00 | 0.00 | 0.00 | 78 | 1018.3 |
| 20260505071036 | 65 | 135 | 8.0 | 11.0 | 0.00 | 0.00 | 0.00 | 78 | 1018.5 |
| 20260505070516 | 64 | 135 | 8.0 | 11.0 | 0.00 | 0.00 | 0.00 | 79 | 1018.5 |
| 20260505070017 | 64 | 135 | 8.0 | 11.0 | 0.00 | 0.00 | 0.00 | 78 | 1018.4 |
| 20260505065517 | 64 | 135 | 6.0 | 9.0 | 0.00 | 0.00 | 0.00 | 78 | 1018.3 |
| 20260505065016 | 64 | 135 | 5.0 | 10.0 | 0.00 | 0.00 | 0.00 | 78 | 1018.4 |
| 20260505064516 | 64 | 135 | 5.0 | 10.0 | 0.00 | 0.00 | 0.00 | 78 | 1018.3 |
| 20260505064016 | 64 | 113 | 6.0 | 10.0 | 0.00 | 0.00 | 0.00 | 79 | 1018.3 |
| 20260505063517 | 64 | 135 | 7.0 | 11.0 | 0.00 | 0.00 | 0.00 | 79 | 1018.3 |
| 20260505063016 | 64 | 135 | 6.0 | 9.0 | 0.00 | 0.00 | 0.00 | 79 | 1018.4 |
| 20260505062516 | 64 | 135 | 7.0 | 10.0 | 0.00 | 0.00 | 0.00 | 79 | 1018.5 |
| 20260505062057 | 64 | 113 | 5.0 | 9.0 | 0.00 | 0.00 | 0.00 | 78 | 1018.5 |
| 20260505061516 | 64 | 135 | 7.0 | 10.0 | 0.00 | 0.00 | 0.00 | 78 | 1018.4 |
| 20260505061016 | 64 | 135 | 6.0 | 11.0 | 0.00 | 0.00 | 0.00 | 76 | 1018.4 |
| 20260505060516 | 64 | 135 | 5.0 | 9.0 | 0.00 | 0.00 | 0.00 | 71 | 1018.5 |
| 20260505060016 | 64 | 158 | 3.0 | 7.0 | 0.00 | 0.00 | 0.00 | 70 | 1018.3 |
| 20260505055516 | 64 | 135 | 3.0 | 6.0 | 0.00 | 0.00 | 0.00 | 70 | 1018.3 |
| 20260505055016 | 63 | 203 | 1.0 | 4.0 | 0.00 | 0.00 | 0.00 | 69 | 1018.3 |
| 20260505054516 | 63 | 248 | 1.0 | 2.0 | 0.00 | 0.00 | 0.00 | 68 | 1018.2 |
| 20260505054016 | 63 | 0.0 | 2.0 | 0.00 | 0.00 | 0.00 | 70 | 1018.1 | |
| 20260505053536 | 62 | 338 | 1.0 | 2.0 | 0.00 | 0.00 | 0.00 | 68 | 1018.0 |
| 20260505053017 | 61 | 0.0 | 0.0 | 0.00 | 0.00 | 0.00 | 68 | 1017.9 | |
| 20260505052656 | 60 | 0.0 | 0.0 | 0.00 | 0.00 | 0.00 | 69 | 1018.0 | |
| 20260505052016 | 60 | 0.0 | 0.0 | 0.00 | 0.00 | 0.00 | 69 | 1018.0 | |
| 20260505051516 | 60 | 0.0 | 1.0 | 0.00 | 0.00 | 0.00 | 69 | 1017.9 | |
| 20260505051016 | 60 | 270 | 1.0 | 2.0 | 0.00 | 0.00 | 0.00 | 68 | 1017.9 |
| 20260505050516 | 60 | 270 | 1.0 | 2.0 | 0.00 | 0.00 | 0.00 | 68 | 1017.8 |
| 20260505041516 | 59 | 0.0 | 0.0 | 0.00 | 0.00 | 0.00 | 68 | 1017.5 | |
| 20260505041016 | 59 | 0.0 | 0.0 | 0.00 | 0.00 | 0.00 | 68 | 1017.5 | |
| 20260505040516 | 59 | 0.0 | 0.0 | 0.00 | 0.00 | 0.00 | 70 | 1017.6 | |
| 20260505040016 | 59 | 0.0 | 1.0 | 0.00 | 0.00 | 0.00 | 69 | 1017.5 | |
| 20260505035516 | 59 | 0.0 | 2.0 | 0.00 | 0.00 | 0.00 | 70 | 1017.4 | |
| 20260505035016 | 59 | 0.0 | 0.0 | 0.00 | 0.00 | 0.00 | 71 | 1017.5 | |
| 20260505034516 | 59 | 0.0 | 1.0 | 0.00 | 0.00 | 0.00 | 69 | 1017.5 | |
| 20260505034016 | 59 | 248 | 1.0 | 1.0 | 0.00 | 0.00 | 0.00 | 69 | 1017.4 |
| 20260505033516 | 59 | 225 | 1.0 | 1.0 | 0.00 | 0.00 | 0.00 | 69 | 1017.4 |
| 20260505033016 | 59 | 0.0 | 1.0 | 0.00 | 0.00 | 0.00 | 70 | 1017.4 | |
| 20260505032536 | 59 | 0.0 | 0.0 | 0.00 | 0.00 | 0.00 | 69 | 1017.4 | |
| 20260505032036 | 59 | 0.0 | 0.0 | 0.00 | 0.00 | 0.00 | 69 | 1017.5 | |
| 20260505031516 | 59 | 0.0 | 0.0 | 0.00 | 0.00 | 0.00 | 69 | 1017.4 | |
| 20260505031016 | 59 | 0.0 | 0.0 | 0.00 | 0.00 | 0.00 | 69 | 1017.5 | |
| 20260505030518 | 59 | 0.0 | 2.0 | 0.00 | 0.00 | 0.00 | 68 | 1017.5 | |
| 20260505030038 | 59 | 0.0 | 1.0 | 0.00 | 0.00 | 0.00 | 68 | 1017.5 | |
| 20260505025518 | 60 | 0.0 | 0.0 | 0.00 | 0.00 | 0.00 | 67 | 1017.5 | |
| 20260505025018 | 60 | 0.0 | 0.0 | 0.00 | 0.00 | 0.00 | 67 | 1017.6 | |
| 20260505024518 | 60 | 0.0 | 0.0 | 0.00 | 0.00 | 0.00 | 66 | 1017.6 | |
| 20260505024018 | 60 | 0.0 | 0.0 | 0.00 | 0.00 | 0.00 | 65 | 1017.6 | |
| 20260505023518 | 60 | 0.0 | 0.0 | 0.00 | 0.00 | 0.00 | 63 | 1017.6 | |
| 20260505023018 | 60 | 0.0 | 0.0 | 0.00 | 0.00 | 0.00 | 61 | 1017.6 | |
| 20260505022518 | 61 | 0.0 | 0.0 | 0.00 | 0.00 | 0.00 | 61 | 1017.6 | |
| 20260505022038 | 61 | 0.0 | 0.0 | 0.00 | 0.00 | 0.00 | 60 | 1017.6 | |
| 20260505021538 | 61 | 0.0 | 1.0 | 0.00 | 0.00 | 0.00 | 58 | 1017.7 | |
| 20260505021018 | 61 | 0.0 | 1.0 | 0.00 | 0.00 | 0.00 | 57 | 1017.7 | |
| 20260505020517 | 61 | 0.0 | 0.0 | 0.00 | 0.00 | 0.00 | 58 | 1017.7 | |
| 20260505020017 | 62 | 0.0 | 0.0 | 0.00 | 0.00 | 0.00 | 57 | 1017.7 | |
| 20260505015518 | 62 | 135 | 1.0 | 2.0 | 0.00 | 0.00 | 0.00 | 57 | 1017.7 |
| 20260505015018 | 63 | 293 | 1.0 | 3.0 | 0.00 | 0.00 | 0.00 | 53 | 1017.7 |
| 20260505014517 | 62 | 293 | 2.0 | 3.0 | 0.00 | 0.00 | 0.00 | 53 | 1017.8 |
| 20260505014018 | 63 | 270 | 1.0 | 2.0 | 0.00 | 0.00 | 0.00 | 53 | 1017.8 |
| 20260505013518 | 63 | 270 | 2.0 | 3.0 | 0.00 | 0.00 | 0.00 | 52 | 1017.8 |
| 20260505013018 | 63 | 270 | 3.0 | 4.0 | 0.00 | 0.00 | 0.00 | 52 | 1017.8 |
| 20260505012517 | 63 | 270 | 3.0 | 4.0 | 0.00 | 0.00 | 0.00 | 53 | 1017.8 |
| 20260505012017 | 62 | 270 | 3.0 | 3.0 | 0.00 | 0.00 | 0.00 | 53 | 1017.9 |
| 20260505011517 | 63 | 293 | 3.0 | 3.0 | 0.00 | 0.00 | 0.00 | 53 | 1017.8 |
| 20260505011017 | 62 | 293 | 3.0 | 4.0 | 0.00 | 0.00 | 0.00 | 53 | 1017.8 |
| 20260505010538 | 62 | 293 | 3.0 | 4.0 | 0.00 | 0.00 | 0.00 | 54 | 1017.9 |
| 20260505010018 | 62 | 270 | 3.0 | 4.0 | 0.00 | 0.00 | 0.00 | 53 | 1017.9 |
| 20260505005518 | 62 | 270 | 3.0 | 4.0 | 0.00 | 0.00 | 0.00 | 53 | 1017.9 |
| 20260505005017 | 62 | 270 | 4.0 | 6.0 | 0.00 | 0.00 | 0.00 | 53 | 1017.9 |
| 20260505004517 | 62 | 270 | 3.0 | 5.0 | 0.00 | 0.00 | 0.00 | 52 | 1017.9 |
| 20260505004017 | 62 | 270 | 3.0 | 4.0 | 0.00 | 0.00 | 0.00 | 53 | 1017.9 |
| 20260505003538 | 61 | 270 | 4.0 | 5.0 | 0.00 | 0.00 | 0.00 | 53 | 1018.0 |
| 20260505003037 | 61 | 270 | 3.0 | 4.0 | 0.00 | 0.00 | 0.00 | 54 | 1018.0 |
| 20260505002518 | 61 | 270 | 3.0 | 4.0 | 0.00 | 0.00 | 0.00 | 55 | 1018.0 |
| 20260505002018 | 60 | 270 | 2.0 | 3.0 | 0.00 | 0.00 | 0.00 | 57 | 1018.1 |
| 20260505001518 | 60 | 270 | 1.0 | 2.0 | 0.00 | 0.00 | 0.00 | 58 | 1018.1 |
| 20260505001017 | 60 | 270 | 2.0 | 3.0 | 0.00 | 0.00 | 0.00 | 57 | 1018.2 |
| 20260505000517 | 60 | 270 | 1.0 | 3.0 | 0.00 | 0.00 | 0.00 | 58 | 1018.2 |
| 20260505000017 | 60 | 0.0 | 1.0 | 0.00 | 0.00 | 0.00 | 60 | 1018.3 | |
| 20260504235517 | 60 | 270 | 2.0 | 3.0 | 0.00 | 0.00 | 0.00 | 60 | 1018.3 |
| 20260504235017 | 60 | 270 | 3.0 | 4.0 | 0.00 | 0.00 | 0.00 | 59 | 1018.4 |
| 20260504234517 | 60 | 270 | 3.0 | 4.0 | 0.00 | 0.00 | 0.00 | 63 | 1018.5 |
| 20260504234017 | 60 | 270 | 2.0 | 4.0 | 0.00 | 0.00 | 0.00 | 63 | 1018.6 |
| 20260504233538 | 60 | 0.0 | 1.0 | 0.00 | 0.00 | 0.00 | 65 | 1018.6 | |
| 20260504233017 | 60 | 270 | 1.0 | 2.0 | 0.00 | 0.00 | 0.00 | 66 | 1018.7 |
| 20260504232558 | 60 | 293 | 2.0 | 3.0 | 0.00 | 0.00 | 0.00 | 66 | 1018.8 |
| 20260504232037 | 60 | 270 | 2.0 | 3.0 | 0.00 | 0.00 | 0.00 | 66 | 1018.8 |
| 20260504231517 | 60 | 270 | 1.0 | 3.0 | 0.00 | 0.00 | 0.00 | 66 | 1018.9 |
| 20260504231038 | 60 | 293 | 2.0 | 3.0 | 0.00 | 0.00 | 0.00 | 66 | 1019.0 |
| 20260504230517 | 59 | 270 | 2.0 | 2.0 | 0.00 | 0.00 | 0.00 | 68 | 1018.9 |
| 20260504230018 | 59 | 293 | 1.0 | 2.0 | 0.00 | 0.00 | 0.00 | 67 | 1019.0 |
| 20260504225517 | 59 | 0.0 | 2.0 | 0.00 | 0.00 | 0.00 | 70 | 1018.9 | |
| 20260504225017 | 59 | 293 | 1.0 | 3.0 | 0.00 | 0.00 | 0.00 | 69 | 1019.0 |
| 20260504224517 | 59 | 270 | 2.0 | 3.0 | 0.00 | 0.00 | 0.00 | 69 | 1019.0 |
| 20260504224017 | 59 | 0.0 | 2.0 | 0.00 | 0.00 | 0.00 | 71 | 1019.0 | |
| 20260504223517 | 60 | 270 | 1.0 | 1.0 | 0.00 | 0.00 | 0.00 | 71 | 1019.1 |
| 20260504223017 | 60 | 270 | 1.0 | 1.0 | 0.00 | 0.00 | 0.00 | 72 | 1019.2 |
| 20260504222517 | 60 | 270 | 1.0 | 2.0 | 0.00 | 0.00 | 0.00 | 71 | 1019.1 |
| 20260504222017 | 60 | 270 | 1.0 | 3.0 | 0.00 | 0.00 | 0.00 | 70 | 1019.1 |
| 20260504221517 | 60 | 270 | 3.0 | 4.0 | 0.00 | 0.00 | 0.00 | 68 | 1019.1 |
| 20260504221017 | 60 | 270 | 2.0 | 4.0 | 0.00 | 0.00 | 0.00 | 68 | 1019.2 |
| 20260504220517 | 60 | 270 | 2.0 | 4.0 | 0.00 | 0.00 | 0.00 | 68 | 1019.3 |
| 20260504220017 | 60 | 270 | 2.0 | 3.0 | 0.00 | 0.00 | 0.00 | 68 | 1019.1 |
| 20260504215517 | 60 | 293 | 1.0 | 2.0 | 0.00 | 0.00 | 0.00 | 69 | 1019.1 |
| 20260504215037 | 60 | 293 | 2.0 | 3.0 | 0.00 | 0.00 | 0.00 | 70 | 1019.2 |
| 20260504214517 | 60 | 270 | 2.0 | 3.0 | 0.00 | 0.00 | 0.00 | 68 | 1019.3 |
| 20260504214017 | 60 | 293 | 1.0 | 3.0 | 0.00 | 0.00 | 0.00 | 68 | 1019.3 |
| 20260504213517 | 60 | 270 | 1.0 | 3.0 | 0.00 | 0.00 | 0.00 | 68 | 1019.3 |
| 20260504213017 | 60 | 270 | 1.0 | 2.0 | 0.00 | 0.00 | 0.00 | 71 | 1019.4 |
| 20260504212517 | 60 | 270 | 1.0 | 2.0 | 0.00 | 0.00 | 0.00 | 70 | 1019.3 |
| 20260504212017 | 60 | 270 | 1.0 | 2.0 | 0.00 | 0.00 | 0.00 | 69 | 1019.4 |
| 20260504211517 | 60 | 0.0 | 2.0 | 0.00 | 0.00 | 0.00 | 71 | 1019.3 | |
| 20260504211017 | 60 | 0.0 | 0.0 | 0.00 | 0.00 | 0.00 | 71 | 1019.4 | |
| 20260504210517 | 60 | 0.0 | 1.0 | 0.00 | 0.00 | 0.00 | 69 | 1019.4 | |
| 20260504210017 | 60 | 293 | 2.0 | 3.0 | 0.00 | 0.00 | 0.00 | 70 | 1019.5 |
| 20260504205517 | 60 | 270 | 2.0 | 3.0 | 0.00 | 0.00 | 0.00 | 72 | 1019.4 |
| 20260504205017 | 60 | 270 | 1.0 | 3.0 | 0.00 | 0.00 | 0.00 | 72 | 1019.5 |
| 20260504204517 | 60 | 293 | 2.0 | 4.0 | 0.00 | 0.00 | 0.00 | 73 | 1019.4 |
| 20260504204016 | 60 | 270 | 2.0 | 4.0 | 0.00 | 0.00 | 0.00 | 74 | 1019.4 |
| 20260504203537 | 61 | 270 | 1.0 | 2.0 | 0.00 | 0.00 | 0.00 | 74 | 1019.5 |
| 20260504203016 | 61 | 270 | 1.0 | 2.0 | 0.00 | 0.00 | 0.00 | 74 | 1019.6 |
| 20260504202517 | 61 | 270 | 1.0 | 2.0 | 0.00 | 0.00 | 0.00 | 74 | 1019.7 |
| 20260504202017 | 61 | 293 | 1.0 | 1.0 | 0.00 | 0.00 | 0.00 | 75 | 1019.7 |
| 20260504201516 | 61 | 0.0 | 2.0 | 0.00 | 0.00 | 0.00 | 76 | 1019.7 | |
| 20260504201016 | 61 | 0.0 | 1.0 | 0.00 | 0.00 | 0.00 | 75 | 1019.6 | |
| 20260504200537 | 61 | 0.0 | 2.0 | 0.00 | 0.00 | 0.00 | 75 | 1019.7 | |
| 20260504200036 | 61 | 270 | 1.0 | 2.0 | 0.00 | 0.00 | 0.00 | 75 | 1019.6 |
| 20260504195517 | 61 | 0.0 | 1.0 | 0.00 | 0.00 | 0.00 | 76 | 1019.6 | |
| 20260504195017 | 61 | 0.0 | 2.0 | 0.00 | 0.00 | 0.00 | 76 | 1019.6 | |
| 20260504194516 | 62 | 0.0 | 2.0 | 0.00 | 0.00 | 0.00 | 75 | 1019.7 | |
| 20260504194016 | 62 | 293 | 2.0 | 3.0 | 0.00 | 0.00 | 0.00 | 75 | 1019.6 |
| 20260504193516 | 62 | 270 | 3.0 | 3.0 | 0.00 | 0.00 | 0.00 | 75 | 1019.6 |
| 20260504193017 | 61 | 270 | 2.0 | 3.0 | 0.00 | 0.00 | 0.00 | 75 | 1019.6 |
| 20260504192536 | 61 | 270 | 2.0 | 3.0 | 0.00 | 0.00 | 0.00 | 76 | 1019.4 |
| 20260504192016 | 61 | 293 | 2.0 | 4.0 | 0.00 | 0.00 | 0.00 | 76 | 1019.4 |
| 20260504191516 | 61 | 270 | 2.0 | 3.0 | 0.00 | 0.00 | 0.00 | 76 | 1019.5 |
| 20260504191017 | 61 | 270 | 1.0 | 2.0 | 0.00 | 0.00 | 0.00 | 76 | 1019.4 |
| 20260504190536 | 62 | 0.0 | 1.0 | 0.00 | 0.00 | 0.00 | 76 | 1019.4 | |
| 20260504190016 | 62 | 0.0 | 1.0 | 0.00 | 0.00 | 0.00 | 76 | 1019.4 | |
| 20260504185516 | 62 | 0.0 | 2.0 | 0.00 | 0.00 | 0.00 | 76 | 1019.4 | |
| 20260504185036 | 62 | 0.0 | 2.0 | 0.00 | 0.00 | 0.00 | 75 | 1019.4 | |
| 20260504184536 | 63 | 0.0 | 2.0 | 0.00 | 0.00 | 0.00 | 75 | 1019.3 | |
| 20260504184016 | 63 | 270 | 1.0 | 2.0 | 0.00 | 0.00 | 0.00 | 75 | 1019.3 |
| 20260504183517 | 63 | 248 | 1.0 | 2.0 | 0.00 | 0.00 | 0.00 | 75 | 1019.3 |
| 20260504183016 | 63 | 0.0 | 2.0 | 0.00 | 0.00 | 0.00 | 75 | 1019.2 | |
| 20260504182556 | 63 | 180 | 1.0 | 1.0 | 0.00 | 0.00 | 0.00 | 74 | 1019.1 |
| 20260504182016 | 64 | 180 | 1.0 | 2.0 | 0.00 | 0.00 | 0.00 | 74 | 1019.0 |
| 20260504181516 | 64 | 158 | 1.0 | 3.0 | 0.00 | 0.00 | 0.00 | 74 | 1019.0 |
| 20260504181016 | 64 | 158 | 1.0 | 2.0 | 0.00 | 0.00 | 0.00 | 74 | 1019.1 |
| 20260504180517 | 64 | 0.0 | 2.0 | 0.00 | 0.00 | 0.00 | 74 | 1018.9 | |
| 20260504180016 | 64 | 0.0 | 2.0 | 0.00 | 0.00 | 0.00 | 74 | 1018.8 | |
| 20260504175556 | 64 | 180 | 1.0 | 2.0 | 0.00 | 0.00 | 0.00 | 73 | 1019.0 |
| 20260504175016 | 64 | 135 | 2.0 | 4.0 | 0.00 | 0.00 | 0.00 | 73 | 1019.0 |
| 20260504174516 | 64 | 113 | 2.0 | 4.0 | 0.00 | 0.00 | 0.00 | 73 | 1019.0 |
| 20260504174016 | 65 | 135 | 2.0 | 5.0 | 0.00 | 0.00 | 0.00 | 73 | 1018.9 |
| 20260504173516 | 65 | 135 | 3.0 | 5.0 | 0.00 | 0.00 | 0.00 | 73 | 1019.0 |
| 20260504173016 | 65 | 135 | 3.0 | 5.0 | 0.00 | 0.00 | 0.00 | 72 | 1018.9 |
| 20260504172516 | 65 | 113 | 2.0 | 5.0 | 0.00 | 0.00 | 0.00 | 72 | 1018.8 |
| 20260504172036 | 65 | 113 | 3.0 | 5.0 | 0.00 | 0.00 | 0.00 | 72 | 1018.9 |
| 20260504171516 | 65 | 113 | 3.0 | 5.0 | 0.00 | 0.00 | 0.00 | 71 | 1018.9 |
| 20260504171016 | 65 | 135 | 2.0 | 4.0 | 0.00 | 0.00 | 0.00 | 71 | 1018.7 |
| 20260504170516 | 65 | 113 | 3.0 | 5.0 | 0.00 | 0.00 | 0.00 | 71 | 1018.7 |
| 20260504151038 | 67 | 135 | 7.0 | 10.0 | 0.00 | 0.00 | 0.00 | 58 | 1018.8 |
| 20260504150518 | 68 | 113 | 6.0 | 9.0 | 0.00 | 0.00 | 0.00 | 56 | 1018.8 |
| 20260504141038 | 69 | 135 | 5.0 | 10.0 | 0.00 | 0.00 | 0.00 | 44 | 1019.3 |
| 20260504140518 | 69 | 113 | 3.0 | 7.0 | 0.00 | 0.00 | 0.00 | 42 | 1019.3 |
| 20260504130518 | 70 | 45 | 4.0 | 9.0 | 0.00 | 0.00 | 0.00 | 54 | 1019.8 |
| 20260504110517 | 71 | 90 | 4.0 | 9.0 | 0.00 | 0.00 | 0.00 | 52 | 1020.4 |